GOES 13

Last updated on Sept. 19, 2020, 5:46 a.m. UTC

1 29155U 06018A   20262.20465966  .00000024  00000-0  00000-0 0  9993
2 29155   0.0941 142.7385 0008392  61.9545 287.8626  1.00273078 52475
UTC
Height (km)
Latitude
Longitude
Inclination
Orbital Period
UTC large
Height (km)
Speed (km/s)
/
Latitude / Longitude
Inclination (degrees)
Orbital Period (minutes)
Azimuth
Elevation
Range (km)
Doppler Factor
iOS Compass Heading
iOS Angle

Next 30 passes for location: Hong Kong

Rise time Rise Azimuth (degrees) Set time Set Azimuth (degrees) Duration Max altitude (degrees)

No matching passes for this satellites